Regional Weather Roundup
Issued by NWS Grand Forks, ND

Home | Current Version | Previous Version | Graphics & Text | Print | Product List | Glossary On
Versions: 1 2 3 4 5 6 7 8 9 10 11 12 13 14 15 16 17 18 19 20 21 22 23 24 25 26 27 28 29 30 31 32 33 34 35 36 37 38 39 40 41 42 43 44 45 46 47 48 49 50
000
ASUS43 KFGF 241231
RWRFGF
PRAIRIE TO PINES  WEATHER ROUNDUP
NATIONAL WEATHER SERVICE EASTERN NORTH DAKOTA/GRAND FORKS ND
700 AM CDT THU APR 24 2014

 **SATELLITE DATA USED TO AUGMENT SKY COVER AT AUTOMATED STATIONS**
 *****  WEATHER ACROSS EASTERN NORTH DAKOTA  *****

CITY           SKY/WX    TMP DP  RH WIND       PRES   REMARKS
GRAND FORKS    CLOUDY    39  37  93 SE8       29.77S
6HR MIN TEMP:  38; 6HR MAX TEMP:  39; 6HR PCP:  0.04;

GRAND FRKS AFB CLOUDY    39  39 100 SE8       29.77S
GRAND FRKS NWS   N/A     39 N/A N/A SE12        N/A
DEVILS LAKE    CLOUDY    37  34  87 SE7       29.71F VSB 1/4
6HR MIN TEMP:  37; 6HR MAX TEMP:  39;

FARGO          CLOUDY    42  38  85 S7        29.77R
WAHPETON ARPT  CLOUDY    39  36  87 CALM      29.76S
$$

 ***** WEATHER ACROSS CENTRAL AND WESTERN NORTH DAKOTA  *****

CITY           SKY/WX    TMP DP  RH WIND       PRES   REMARKS
BISMARCK       CLEAR     36  29  75 NW6       29.73S
6HR MIN TEMP:  35; 6HR MAX TEMP:  40;

MINOT          CLEAR     39  29  67 SW10      29.65F
6HR MIN TEMP:  38; 6HR MAX TEMP:  42;

JAMESTOWN      FOG       37  37 100 SW3       29.72S VSB 1/4
6HR MIN TEMP:  35; 6HR MAX TEMP:  40;

MINOT AFB      CLEAR     35  34  93 W14       29.64F
GARRISON         N/A     33  28  81 W8        29.69S
WILLISTON      CLEAR     37  26  64 SW8       29.70R
6HR MIN TEMP:  34; 6HR MAX TEMP:  45;

DICKINSON      CLEAR     34  24  67 W10       29.73S
6HR MIN TEMP:  32; 6HR MAX TEMP:  40;

HETTINGER      CLEAR     28  21  75 NW9       29.79S WCI  19
6HR MIN TEMP:  25; 6HR MAX TEMP:  36;

$$

 *****  OTHER AIRPORT OBSERVATIONS IN OUR AREA  *****

CITY           SKY/WX    TMP DP  RH WIND       PRES   REMARKS
WALHALLA       CLOUDY    37  37 100 SE12      29.77R FOG
GRAFTON AIRPOR CLOUDY    37  37 100 SE12      29.77F FOG
VALLEY CITY AR CLOUDY    37  37 100 SE5       29.74S FOG
CANDO          FOG       37  37 100 SE7       29.71S VSB<1/4
CAVALIER APRT  FOG       37  37 100 SE9G16    29.77S VSB 1
GWINNER        SUNNY     39  39 100 SE5       29.74S
SHEYENNE NWR     N/A     39  39  99 S5        29.95
ROLLA          FOG       37  37 100 S9        29.69S VSB<1/4
 ***** THE ABOVE OBSERVATIONS ARE NON NWS ARE NOT QUALITY
       CONTROLLED AND MAY MIS-REPORT RAIN FOR SNOW...
$$

  *****  WEATHER ACROSS NORTHERN MINNESOTA  *****

CITY           SKY/WX    TMP DP  RH WIND       PRES   REMARKS
FLAG ISLAND    LGT RAIN  36  34  93 SE8       29.87R
WARROAD        CLOUDY    37  34  87 E10       29.85S
ROSEAU         CLOUDY    37  34  87 SE12      29.83F
HALLOCK        DRIZZLE   39  36  87 SE12      29.79S
THF RVR FALLS  CLOUDY    37  34  87 E12       29.80S
6HR MIN TEMP:  36; 6HR MAX TEMP:  37; 6HR PCP:  0.01;

BAUDETTE       CLOUDY    37  35  92 SE8       29.88R
6HR MIN TEMP:  37; 6HR MAX TEMP:  39; 6HR PCP: TRACE;

WASKISH        CLOUDY    37  36  93 E10       29.86S FOG
CROOKSTON      MIX PCPN  37  37 100 SE9       29.80R
$$
  *****  WEATHER ACROSS CENTRAL AND WEST MINNESOTA  *****

CITY           SKY/WX    TMP DP  RH WIND       PRES   REMARKS
FOSSTON        CLOUDY    36  36 100 SE12      29.79S
BEMIDJI        LGT RAIN  35  35  99 E9        29.82S
PARK RAPIDS    CLOUDY    38  37  97 E9        29.80S FOG
6HR MIN TEMP:  37; 6HR MAX TEMP:  38; 6HR PCP: TRACE;

ELBOW LAKE     CLOUDY    40  37  87 E10       29.74S
6HR MIN TEMP:  40; 6HR MAX TEMP:  41;

WADENA         CLOUDY    39  36  87 E10       29.77F FOG
DETROIT LAKES  CLOUDY    37  37 100 SE8       29.77S FOG
MOORHEAD       RAIN      43  43 100 CALM      29.78R
FERGUS FALLS   CLOUDY    41  36  81 SE9       29.73S
MORRIS MN      CLOUDY    41  37  87 E9        29.72F FOG
STAPLES        CLOUDY    39  37  93 E7        29.79S
$$
  *****  WEATHER ELSEWHERE ACROSS MINNESOTA  *****

CITY           SKY/WX    TMP DP  RH WIND       PRES   REMARKS
DULUTH         LGT RAIN  35  33  92 E17       29.92F FOG     WCI  25
6HR MIN TEMP:  35; 6HR MAX TEMP:  37; 6HR PCP:  0.08;

INTRNTL FALLS  CLOUDY    38  35  89 SE12      29.89F
6HR MIN TEMP:  37; 6HR MAX TEMP:  40; 6HR PCP:  0.02;

ELY            CLOUDY    36  34  93 SE9       29.95S
CLOQUET        DRIZZLE   36  34  93 E12G17    29.91R
WHEATON        DRIZZLE   43  39  87 CALM      29.76S
BRAINERD       CLOUDY    43  37  79 SE9G18    29.83S HAZE
6HR MIN TEMP:  43; 6HR MAX TEMP:  43;

HIBBING        CLOUDY    37  34  89 SE14      29.90F FOG
6HR MIN TEMP:  34; 6HR MAX TEMP:  37; 6HR PCP:  0.07;

ALEXANDRIA     CLOUDY    40  37  89 E9        29.76F
6HR MIN TEMP:  40; 6HR MAX TEMP:  41;

SAINT CLOUD    CLOUDY    43  39  86 E7        29.80R
6HR MIN TEMP:  42; 6HR MAX TEMP:  43;

MINNEAPOLIS    RAIN      41  40  96 E18       29.81S FOG
6HR MIN TEMP:  41; 6HR MAX TEMP:  44; 6HR PCP:  0.12;

$$

  *****  WEATHER ACROSS SOUTH DAKOTA  *****

CITY           SKY/WX    TMP DP  RH WIND       PRES   REMARKS
SIOUX FALLS    RAIN      46  45  96 NE10      29.66R FOG
6HR MIN TEMP:  46; 6HR MAX TEMP:  47; 6HR PCP:  0.26;

BROOKINGS      NOT AVBL
WATERTOWN      LGT RAIN  40  39  97 NE5       29.71R FOG
6HR MIN TEMP:  40; 6HR MAX TEMP:  42; 6HR PCP:  0.01;

HURON          CLOUDY    43  40  89 NW6       29.73R
6HR MIN TEMP:  42; 6HR MAX TEMP:  50; 6HR PCP: TRACE;

SISSETON         N/A     40  38  93 CALM      29.73S
ABERDEEN       CLOUDY    37  37 100 NW7       29.74S FOG
6HR MIN TEMP:  37; 6HR MAX TEMP:  40;

MITCHELL       CLOUDY    45  43  93 N10       29.71R
PIERRE         PTCLDY    44  33  65 W13       29.77R
6HR MIN TEMP:  43; 6HR MAX TEMP:  47;

MOBRIDGE       PTCLDY    34  30  85 NW6       29.72R
RAPID CITY     CLEAR     33  19  56 W9        29.85S
6HR MIN TEMP:  32; 6HR MAX TEMP:  41;

$$

  *****  SOME WEATHER IN NEARBY STATES *****

CITY           SKY/WX    TMP DP  RH WIND       PRES   REMARKS
GLASGOW MT     CLEAR     32  26  78 W9        29.74R WCI  24
6HR MIN TEMP:  32; 6HR MAX TEMP:  41;

GREAT FALLS MT CLOUDY    39  30  70 SW14      29.79S
6HR MIN TEMP:  32; 6HR MAX TEMP:  39;

CHEYENNE WY    CLEAR     29  14  53 W7        29.98S WCI  22
6HR MIN TEMP:  29; 6HR MAX TEMP:  41;

SCOTTSBLUFF NE CLEAR     30  24  78 NW6       29.95R WCI  24
6HR MIN TEMP:  29; 6HR MAX TEMP:  49;

OMAHA NE       RAIN      49  46  90 W5        29.68R FOG
6HR MIN TEMP:  48; 6HR MAX TEMP:  51; 6HR PCP:  0.08;

DES MOINES IA  CLOUDY    51  42  71 SE17      29.64F
6HR MIN TEMP:  50; 6HR MAX TEMP:  53; 6HR PCP:  0.13;

DAVENPORT IA   CLOUDY    46  37  71 SE22      29.85F
6HR MIN TEMP:  43; 6HR MAX TEMP:  47;

CHICAGO IL     CLOUDY    42  33  70 E8        30.02F
6HR MIN TEMP:  39; 6HR MAX TEMP:  42; 6HR PCP:  0.03;

EAU CLAIRE WI  RAIN      38  36  92 E15G21    29.90R FOG
6HR MIN TEMP:  38; 6HR MAX TEMP:  41; 6HR PCP:  0.16;

LA CROSSE WI   RAIN      40  36  86 SE8       29.90S
6HR MIN TEMP:  40; 6HR MAX TEMP:  43; 6HR PCP:  0.31;

$$

  *****  SOME NATIONAL WEATHER *****

CITY           SKY/WX    TMP DP  RH WIND       PRES   REMARKS
LA GUARDIA NY  SUNNY     44  17  33 NW18G31   29.90R
6HR MIN TEMP:  43; 6HR MAX TEMP:  44;

RALEIGH NC     MOSUNNY   48  39  71 CALM      30.12R
6HR MIN TEMP:  40; 6HR MAX TEMP:  53;

ATLANTA GA     MOSUNNY   54  37  52 E12       30.04R
6HR MIN TEMP:  50; 6HR MAX TEMP:  54;

NEW ORLEANS LA MOCLDY    65  64  97 SE3       29.94R FOG
6HR MIN TEMP:  63; 6HR MAX TEMP:  68;

OKLAHOMA CITY  PTCLDY    66  61  82 S18       29.63F
6HR MIN TEMP:  65; 6HR MAX TEMP:  69; 6HR PCP: TRACE;

ALBUQUERQUE NM CLEAR     48   9  20 NW18G25   30.08R
6HR MIN TEMP:  44; 6HR MAX TEMP:  54;

SALT LAKE CITY PTCLDY    40  23  50 SE14      30.05F
6HR MIN TEMP:  39; 6HR MAX TEMP:  44;

LOS ANGELES CA PTCLDY    56  48  74 E3        29.94S
6HR MIN TEMP:  56; 6HR MAX TEMP:  62;




USA.gov is the U.S. government's official web portal to all federal, state and local government web resources and services.